Time,TemperatureF,DewpointF,PressureIn,WindDirection,WindDirectionDegrees,WindSpeedMPH,WindSpeedGustMPH,Humidity,HourlyPrecipIn,Conditions,Clouds,dailyrainin,SoftwareType,DateUTC
2013-04-04 00:00:00,44.8,20.8,30.21,WNW,302,0.0,0.0,38,0.00,,,0.00,LWC V2.00 B2112,2013-04-04 04:00:00,
2013-04-04 00:05:00,44.8,20.8,30.21,WNW,302,0.0,0.0,38,0.00,,,0.00,LWC V2.00 B2112,2013-04-04 04:05:00,
2013-04-04 00:10:00,44.9,22.1,30.21,WNW,302,0.0,0.0,40,0.00,,,0.00,LWC V2.00 B2112,2013-04-04 04:10:00,
2013-04-04 00:15:00,44.9,21.5,30.20,WNW,302,0.0,0.0,39,0.00,,,0.00,LWC V2.00 B2112,2013-04-04 04:15:00,
2013-04-04 00:20:00,44.9,20.2,30.20,WNW,302,0.0,0.0,37,0.00,,,0.00,LWC V2.00 B2112,2013-04-04 04:20:00,
2013-04-04 00:25:00,44.9,20.8,30.20,WNW,302,0.0,0.0,38,0.00,,,0.00,LWC V2.00 B2112,2013-04-04 04:25:00,
2013-04-04 00:30:00,44.9,20.2,30.20,WNW,302,0.0,0.0,37,0.00,,,0.00,LWC V2.00 B2112,2013-04-04 04:30:00,
2013-04-04 00:35:00,44.9,19.6,30.20,WNW,302,0.0,0.0,36,0.00,,,0.00,LWC V2.00 B2112,2013-04-04 04:35:00,
2013-04-04 00:40:00,44.6,24.0,30.20,WNW,302,0.0,0.0,44,0.00,,,0.00,LWC V2.00 B2112,2013-04-04 04:40:00,
2013-04-04 00:45:00,44.5,23.4,30.20,WNW,302,0.0,0.0,43,0.00,,,0.00,LWC V2.00 B2112,2013-04-04 04:45:00,
2013-04-04 00:50:00,44.2,23.7,30.20,WNW,302,0.0,0.0,44,0.00,,,0.00,LWC V2.00 B2112,2013-04-04 04:50:00,
2013-04-04 01:00:00,44.3,22.1,30.22,South,174,0.0,0.0,41,0.00,,,0.00,LWC V2.00 B2112,2013-04-04 05:00:00,
2013-04-04 01:05:00,44.1,22.5,30.22,ESE,105,0.0,5.0,42,0.00,,,0.00,LWC V2.00 B2112,2013-04-04 05:05:00,
2013-04-04 01:10:00,43.5,23.0,30.22,ESE,110,0.0,0.0,44,0.00,,,0.00,LWC V2.00 B2112,2013-04-04 05:10:00,
2013-04-04 01:15:00,43.1,23.2,30.22,East,89,0.0,0.0,45,0.00,,,0.00,LWC V2.00 B2112,2013-04-04 05:15:00,
2013-04-04 01:20:00,42.8,22.4,30.22,ESE,105,0.0,3.0,44,0.00,,,0.00,LWC V2.00 B2112,2013-04-04 05:20:00,
2013-04-04 01:25:00,42.6,21.7,30.22,ESE,110,0.0,0.0,43,0.00,,,0.00,LWC V2.00 B2112,2013-04-04 05:25:00,
2013-04-04 01:30:00,42.5,22.1,30.21,ENE,69,0.0,4.0,44,0.00,,,0.00,LWC V2.00 B2112,2013-04-04 05:30:00,
2013-04-04 01:35:00,42.5,21.0,30.21,East,80,0.0,0.0,42,0.00,,,0.00,LWC V2.00 B2112,2013-04-04 05:35:00,
2013-04-04 01:45:00,42.5,19.9,30.21,East,94,0.0,5.0,40,0.00,,,0.00,LWC V2.00 B2112,2013-04-04 05:45:00,
2013-04-04 01:55:00,42.5,19.9,30.21,East,99,0.0,0.0,40,0.00,,,0.00,LWC V2.00 B2112,2013-04-04 05:55:00,
2013-04-04 02:00:00,42.5,19.9,30.21,East,95,0.0,0.0,40,0.00,,,0.00,LWC V2.00 B2112,2013-04-04 06:00:00,
2013-04-04 02:05:00,42.5,19.9,30.21,East,84,0.0,0.0,40,0.00,,,0.00,LWC V2.00 B2112,2013-04-04 06:05:00,
2013-04-04 02:10:00,42.3,19.7,30.21,ENE,70,0.0,0.0,40,0.00,,,0.00,LWC V2.00 B2112,2013-04-04 06:10:00,
2013-04-04 02:15:00,42.3,19.7,30.21,ESE,106,0.0,0.0,40,0.00,,,0.00,LWC V2.00 B2112,2013-04-04 06:15:00,
2013-04-04 02:20:00,42.2,19.6,30.21,ENE,59,0.0,0.0,40,0.00,,,0.00,LWC V2.00 B2112,2013-04-04 06:20:00,
2013-04-04 02:30:00,42.1,20.7,30.21,NE,56,0.0,0.0,42,0.00,,,0.00,LWC V2.00 B2112,2013-04-04 06:30:00,
2013-04-04 02:35:00,42.1,20.1,30.21,ESE,109,0.0,0.0,41,0.00,,,0.00,LWC V2.00 B2112,2013-04-04 06:35:00,
2013-04-04 02:40:00,41.9,21.1,30.21,East,100,0.0,0.0,43,0.00,,,0.00,LWC V2.00 B2112,2013-04-04 06:40:00,
2013-04-04 02:45:00,41.9,20.5,30.20,ESE,108,0.0,3.0,42,0.00,,,0.00,LWC V2.00 B2112,2013-04-04 06:45:00,
2013-04-04 02:50:00,41.8,21.5,30.20,East,93,0.0,0.0,44,0.00,,,0.00,LWC V2.00 B2112,2013-04-04 06:50:00,
2013-04-04 02:55:00,41.8,22.0,30.20,NE,49,0.0,1.0,45,0.00,,,0.00,LWC V2.00 B2112,2013-04-04 06:55:00,
2013-04-04 03:00:00,41.6,22.4,30.20,East,84,0.0,0.0,46,0.00,,,0.00,LWC V2.00 B2112,2013-04-04 07:00:00,
2013-04-04 03:10:00,41.3,24.1,30.20,East,86,0.0,0.0,50,0.00,,,0.00,LWC V2.00 B2112,2013-04-04 07:10:00,
2013-04-04 03:15:00,41.2,25.4,30.20,NE,50,0.0,2.0,53,0.00,,,0.00,LWC V2.00 B2112,2013-04-04 07:15:00,
2013-04-04 03:20:00,41.2,25.4,30.20,East,96,0.0,0.0,53,0.00,,,0.00,LWC V2.00 B2112,2013-04-04 07:20:00,
2013-04-04 03:25:00,41.2,25.8,30.20,ESE,108,0.0,0.0,54,0.00,,,0.00,LWC V2.00 B2112,2013-04-04 07:25:00,
2013-04-04 03:30:00,41.2,26.7,30.21,East,92,0.0,0.0,56,0.00,,,0.00,LWC V2.00 B2112,2013-04-04 07:30:00,
2013-04-04 03:40:00,41.2,27.1,30.21,East,86,0.0,2.0,57,0.00,,,0.00,LWC V2.00 B2112,2013-04-04 07:40:00,
2013-04-04 03:45:00,41.2,27.6,30.21,ESE,104,0.0,0.0,58,0.00,,,0.00,LWC V2.00 B2112,2013-04-04 07:45:00,
2013-04-04 03:50:00,41.2,27.6,30.21,East,88,0.0,5.0,58,0.00,,,0.00,LWC V2.00 B2112,2013-04-04 07:50:00,
2013-04-04 03:55:00,41.2,27.6,30.21,ESE,102,0.0,0.0,58,0.00,,,0.00,LWC V2.00 B2112,2013-04-04 07:55:00,
2013-04-04 04:05:00,41.1,27.9,30.21,East,93,0.0,3.0,59,0.00,,,0.00,LWC V2.00 B2112,2013-04-04 08:05:00,
2013-04-04 04:10:00,40.9,27.7,30.21,East,85,0.0,0.0,59,0.00,,,0.00,LWC V2.00 B2112,2013-04-04 08:10:00,
2013-04-04 04:15:00,40.9,27.7,30.21,East,94,0.0,0.0,59,0.00,,,0.00,LWC V2.00 B2112,2013-04-04 08:15:00,
2013-04-04 04:20:00,40.6,27.8,30.21,East,84,0.0,2.0,60,0.00,,,0.00,LWC V2.00 B2112,2013-04-04 08:20:00,
2013-04-04 04:25:00,40.5,27.7,30.21,ESE,118,0.0,0.0,60,0.00,,,0.00,LWC V2.00 B2112,2013-04-04 08:25:00,
2013-04-04 04:30:00,40.5,28.1,30.21,ESE,107,0.0,0.0,61,0.00,,,0.00,LWC V2.00 B2112,2013-04-04 08:30:00,
2013-04-04 04:35:00,40.3,27.5,30.21,ESE,105,0.0,0.0,60,0.00,,,0.00,LWC V2.00 B2112,2013-04-04 08:35:00,
2013-04-04 04:45:00,40.5,27.7,30.21,East,95,0.0,0.0,60,0.00,,,0.00,LWC V2.00 B2112,2013-04-04 08:45:00,
2013-04-04 04:50:00,40.5,27.7,30.21,ESE,107,0.0,0.0,60,0.00,,,0.00,LWC V2.00 B2112,2013-04-04 08:50:00,
2013-04-04 05:00:00,40.3,27.5,30.21,East,100,0.0,0.0,60,0.00,,,0.00,LWC V2.00 B2112,2013-04-04 09:00:00,
2013-04-04 05:05:00,40.2,27.4,30.21,East,98,0.0,0.0,60,0.00,,,0.00,LWC V2.00 B2112,2013-04-04 09:05:00,
2013-04-04 05:10:00,40.1,27.3,30.21,East,96,0.0,0.0,60,0.00,,,0.00,LWC V2.00 B2112,2013-04-04 09:10:00,
2013-04-04 05:15:00,39.9,27.6,30.23,East,96,0.0,0.0,61,0.00,,,0.00,LWC V2.00 B2112,2013-04-04 09:15:00,
2013-04-04 05:20:00,39.6,27.3,30.23,East,96,0.0,0.0,61,0.00,,,0.00,LWC V2.00 B2112,2013-04-04 09:20:00,
2013-04-04 05:30:00,39.5,26.8,30.22,East,94,0.0,0.0,60,0.00,,,0.00,LWC V2.00 B2112,2013-04-04 09:30:00,
2013-04-04 05:35:00,39.5,26.8,30.22,East,91,0.0,0.0,60,0.00,,,0.00,LWC V2.00 B2112,2013-04-04 09:35:00,
2013-04-04 05:40:00,39.3,26.6,30.22,East,92,0.0,0.0,60,0.00,,,0.00,LWC V2.00 B2112,2013-04-04 09:40:00,
2013-04-04 05:45:00,39.2,26.5,30.23,ENE,75,0.0,0.0,60,0.00,,,0.00,LWC V2.00 B2112,2013-04-04 09:45:00,
2013-04-04 05:55:00,38.8,26.1,30.23,East,94,0.0,0.0,60,0.00,,,0.00,LWC V2.00 B2112,2013-04-04 09:55:00,
2013-04-04 06:00:00,38.8,26.1,30.23,East,90,0.0,0.0,60,0.00,,,0.00,LWC V2.00 B2112,2013-04-04 10:00:00,
2013-04-04 06:10:00,38.3,25.6,30.23,East,96,0.0,0.0,60,0.00,,,0.00,LWC V2.00 B2112,2013-04-04 10:10:00,
2013-04-04 06:15:00,38.3,25.6,30.23,ESE,109,0.0,0.0,60,0.00,,,0.00,LWC V2.00 B2112,2013-04-04 10:15:00,
2013-04-04 06:20:00,38.0,25.8,30.23,ESE,108,0.0,0.0,61,0.00,,,0.00,LWC V2.00 B2112,2013-04-04 10:20:00,
2013-04-04 06:25:00,37.8,25.6,30.23,ESE,106,0.0,0.0,61,0.00,,,0.00,LWC V2.00 B2112,2013-04-04 10:25:00,
2013-04-04 06:35:00,37.8,25.6,30.23,ESE,105,0.0,0.0,61,0.00,,,0.00,LWC V2.00 B2112,2013-04-04 10:35:00,
2013-04-04 06:40:00,37.8,25.6,30.23,ESE,105,0.0,0.0,61,0.00,,,0.00,LWC V2.00 B2112,2013-04-04 10:40:00,
2013-04-04 06:45:00,37.6,25.4,30.25,ESE,105,0.0,0.0,61,0.00,,,0.00,LWC V2.00 B2112,2013-04-04 10:45:00,
2013-04-04 06:55:00,37.6,25.0,30.25,ENE,77,0.0,0.0,60,0.00,,,0.00,LWC V2.00 B2112,2013-04-04 10:55:00,
2013-04-04 07:00:00,37.6,25.4,30.25,ENE,73,0.0,0.0,61,0.00,,,0.00,LWC V2.00 B2112,2013-04-04 11:00:00,
2013-04-04 07:05:00,37.5,25.3,30.25,ESE,115,0.0,1.0,61,0.00,,,0.00,LWC V2.00 B2112,2013-04-04 11:05:00,
2013-04-04 07:10:00,37.3,25.1,30.25,ESE,108,0.0,0.0,61,0.00,,,0.00,LWC V2.00 B2112,2013-04-04 11:10:00,
2013-04-04 07:15:00,37.3,25.1,30.25,East,99,0.0,0.0,61,0.00,,,0.00,LWC V2.00 B2112,2013-04-04 11:15:00,
2013-04-04 07:20:00,37.3,25.1,30.25,East,96,0.0,0.0,61,0.00,,,0.00,LWC V2.00 B2112,2013-04-04 11:20:00,
2013-04-04 07:25:00,37.5,24.9,30.25,ESE,104,0.0,0.0,60,0.00,,,0.00,LWC V2.00 B2112,2013-04-04 11:25:00,
2013-04-04 07:30:00,37.5,24.9,30.26,East,94,0.0,0.0,60,0.00,,,0.00,LWC V2.00 B2112,2013-04-04 11:30:00,
2013-04-04 07:35:00,37.6,25.0,30.26,ESE,118,2.0,2.0,60,0.00,,,0.00,LWC V2.00 B2112,2013-04-04 11:35:00,
2013-04-04 07:40:00,37.6,25.0,30.26,East,99,0.0,0.0,60,0.00,,,0.00,LWC V2.00 B2112,2013-04-04 11:40:00,
2013-04-04 07:45:00,37.6,24.6,30.27,ESE,111,0.0,0.0,59,0.00,,,0.00,LWC V2.00 B2112,2013-04-04 11:45:00,
2013-04-04 07:50:00,37.8,24.4,30.27,East,90,0.0,5.0,58,0.00,,,0.00,LWC V2.00 B2112,2013-04-04 11:50:00,
2013-04-04 07:55:00,37.8,24.4,30.27,East,89,0.0,0.0,58,0.00,,,0.00,LWC V2.00 B2112,2013-04-04 11:55:00,
2013-04-04 08:00:00,37.8,24.0,30.27,East,94,0.0,0.0,57,0.00,,,0.00,LWC V2.00 B2112,2013-04-04 12:00:00,
2013-04-04 08:05:00,37.8,24.0,30.27,ENE,59,0.0,5.0,57,0.00,,,0.00,LWC V2.00 B2112,2013-04-04 12:05:00,
2013-04-04 08:10:00,38.0,24.1,30.27,East,89,0.0,0.0,57,0.00,,,0.00,LWC V2.00 B2112,2013-04-04 12:10:00,
2013-04-04 08:15:00,38.2,23.9,30.28,East,88,0.0,0.0,56,0.00,,,0.00,LWC V2.00 B2112,2013-04-04 12:15:00,
2013-04-04 08:20:00,38.3,23.1,30.28,East,99,0.0,1.0,54,0.00,,,0.00,LWC V2.00 B2112,2013-04-04 12:20:00,
2013-04-04 08:30:00,38.6,23.4,30.28,ENE,75,0.0,0.0,54,0.00,,,0.00,LWC V2.00 B2112,2013-04-04 12:30:00,
2013-04-04 08:35:00,38.8,24.0,30.28,ESE,104,0.0,0.0,55,0.00,,,0.00,LWC V2.00 B2112,2013-04-04 12:35:00,
2013-04-04 08:40:00,38.9,23.7,30.28,East,82,0.0,1.0,54,0.00,,,0.00,LWC V2.00 B2112,2013-04-04 12:40:00,
2013-04-04 08:50:00,39.1,23.4,30.28,East,90,0.0,0.0,53,0.00,,,0.00,LWC V2.00 B2112,2013-04-04 12:50:00,
2013-04-04 08:55:00,39.3,23.6,30.28,East,92,0.0,0.0,53,0.00,,,0.00,LWC V2.00 B2112,2013-04-04 12:55:00,
2013-04-04 09:00:00,39.8,23.6,30.28,East,79,0.0,0.0,52,0.00,,,0.00,LWC V2.00 B2112,2013-04-04 13:00:00,
2013-04-04 09:10:00,39.8,23.2,30.28,ESE,103,0.0,8.0,51,0.00,,,0.00,LWC V2.00 B2112,2013-04-04 13:10:00,
2013-04-04 09:15:00,40.1,23.4,30.27,NE,44,0.0,0.0,51,0.00,,,0.00,LWC V2.00 B2112,2013-04-04 13:15:00,
2013-04-04 09:25:00,40.9,24.2,30.27,ESE,107,0.0,5.0,51,0.00,,,0.00,LWC V2.00 B2112,2013-04-04 13:25:00,
2013-04-04 09:30:00,41.3,24.1,30.26,ESE,102,0.0,4.0,50,0.00,,,0.00,LWC V2.00 B2112,2013-04-04 13:30:00,
2013-04-04 09:35:00,41.3,24.1,30.26,East,79,0.0,0.0,50,0.00,,,0.00,LWC V2.00 B2112,2013-04-04 13:35:00,
2013-04-04 09:40:00,41.5,23.8,30.26,East,101,0.0,0.0,49,0.00,,,0.00,LWC V2.00 B2112,2013-04-04 13:40:00,
2013-04-04 09:45:00,41.6,23.4,30.25,East,82,0.0,0.0,48,0.00,,,0.00,LWC V2.00 B2112,2013-04-04 13:45:00,
2013-04-04 09:50:00,41.9,24.1,30.25,East,89,5.0,5.0,49,0.00,,,0.00,LWC V2.00 B2112,2013-04-04 13:50:00,
2013-04-04 09:55:00,42.1,24.8,30.25,East,93,2.0,3.0,50,0.00,,,0.00,LWC V2.00 B2112,2013-04-04 13:55:00,
2013-04-04 10:00:00,42.6,24.8,30.25,ESE,108,0.0,0.0,49,0.00,,,0.00,LWC V2.00 B2112,2013-04-04 14:00:00,
2013-04-04 10:05:00,43.2,24.3,30.25,ENE,58,0.0,0.0,47,0.00,,,0.00,LWC V2.00 B2112,2013-04-04 14:05:00,
2013-04-04 10:10:00,43.1,24.8,30.25,East,80,0.0,2.0,48,0.00,,,0.00,LWC V2.00 B2112,2013-04-04 14:10:00,
2013-04-04 10:20:00,42.9,24.6,30.25,ENE,77,0.0,0.0,48,0.00,,,0.00,LWC V2.00 B2112,2013-04-04 14:20:00,
2013-04-04 10:25:00,43.2,25.3,30.25,ESE,103,1.0,4.0,49,0.00,,,0.00,LWC V2.00 B2112,2013-04-04 14:25:00,
2013-04-04 10:30:00,43.5,25.6,30.24,ESE,105,0.0,7.0,49,0.00,,,0.00,LWC V2.00 B2112,2013-04-04 14:30:00,
2013-04-04 10:40:00,44.6,25.6,30.24,East,84,0.0,5.0,47,0.00,,,0.00,LWC V2.00 B2112,2013-04-04 14:40:00,
2013-04-04 10:45:00,45.2,26.7,30.25,East,96,0.0,4.0,48,0.00,,,0.00,LWC V2.00 B2112,2013-04-04 14:45:00,
2013-04-04 10:50:00,45.1,25.6,30.25,ESE,103,0.0,0.0,46,0.00,,,0.00,LWC V2.00 B2112,2013-04-04 14:50:00,
2013-04-04 10:55:00,45.4,26.9,30.25,ESE,113,0.0,5.0,48,0.00,,,0.00,LWC V2.00 B2112,2013-04-04 14:55:00,
2013-04-04 11:00:00,45.2,26.2,30.23,ENE,60,0.0,0.0,47,0.00,,,0.00,LWC V2.00 B2112,2013-04-04 15:00:00,
2013-04-04 11:05:00,45.2,26.7,30.23,East,101,2.0,7.0,48,0.00,,,0.00,LWC V2.00 B2112,2013-04-04 15:05:00,
2013-04-04 11:10:00,44.6,24.6,30.23,East,82,0.0,6.0,45,0.00,,,0.00,LWC V2.00 B2112,2013-04-04 15:10:00,
2013-04-04 11:20:00,45.8,26.2,30.22,East,94,0.0,5.0,46,0.00,,,0.00,LWC V2.00 B2112,2013-04-04 15:20:00,
2013-04-04 11:25:00,46.0,25.9,30.22,NE,35,2.0,3.0,45,0.00,,,0.00,LWC V2.00 B2112,2013-04-04 15:25:00,
2013-04-04 11:30:00,46.7,27.0,30.22,East,82,0.0,0.0,46,0.00,,,0.00,LWC V2.00 B2112,2013-04-04 15:30:00,
2013-04-04 11:35:00,47.4,27.1,30.22,ESE,114,0.0,0.0,45,0.00,,,0.00,LWC V2.00 B2112,2013-04-04 15:35:00,
2013-04-04 11:40:00,46.8,26.6,30.22,ESE,109,0.0,0.0,45,0.00,,,0.00,LWC V2.00 B2112,2013-04-04 15:40:00,
2013-04-04 11:45:00,46.5,26.3,30.22,ESE,106,0.0,0.0,45,0.00,,,0.00,LWC V2.00 B2112,2013-04-04 15:45:00,
2013-04-04 11:50:00,46.2,26.6,30.22,East,91,0.0,0.0,46,0.00,,,0.00,LWC V2.00 B2112,2013-04-04 15:50:00,
2013-04-04 11:55:00,45.8,25.7,30.22,East,92,0.0,0.0,45,0.00,,,0.00,LWC V2.00 B2112,2013-04-04 15:55:00,
2013-04-04 12:00:00,45.8,26.7,30.20,East,91,0.0,0.0,47,0.00,,,0.00,LWC V2.00 B2112,2013-04-04 16:00:00,
2013-04-04 12:05:00,46.0,26.9,30.20,East,98,0.0,0.0,47,0.00,,,0.00,LWC V2.00 B2112,2013-04-04 16:05:00,
2013-04-04 12:10:00,45.8,25.7,30.20,East,82,3.0,5.0,45,0.00,,,0.00,LWC V2.00 B2112,2013-04-04 16:10:00,
2013-04-04 12:15:00,46.0,28.4,30.20,East,97,0.0,0.0,50,0.00,,,0.00,LWC V2.00 B2112,2013-04-04 16:15:00,
2013-04-04 12:20:00,45.8,29.7,30.20,East,94,0.0,0.0,53,0.00,,,0.00,LWC V2.00 B2112,2013-04-04 16:20:00,
2013-04-04 12:25:00,45.7,29.1,30.20,East,84,0.0,0.0,52,0.00,,,0.00,LWC V2.00 B2112,2013-04-04 16:25:00,
2013-04-04 12:30:00,46.0,29.8,30.20,East,98,0.0,0.0,53,0.00,,,0.00,LWC V2.00 B2112,2013-04-04 16:30:00,
2013-04-04 12:35:00,46.5,30.8,30.20,NE,51,0.0,0.0,54,0.00,,,0.00,LWC V2.00 B2112,2013-04-04 16:35:00,
2013-04-04 12:40:00,46.7,29.5,30.20,ESE,105,0.0,3.0,51,0.00,,,0.00,LWC V2.00 B2112,2013-04-04 16:40:00,
2013-04-04 12:45:00,47.6,30.4,30.17,East,91,2.0,3.0,51,0.00,,,0.00,LWC V2.00 B2112,2013-04-04 16:45:00,
2013-04-04 12:50:00,47.7,30.5,30.17,East,94,0.0,4.0,51,0.00,,,0.00,LWC V2.00 B2112,2013-04-04 16:50:00,
2013-04-04 13:00:00,47.7,30.5,30.17,East,96,0.0,0.0,51,0.00,,,0.00,LWC V2.00 B2112,2013-04-04 17:00:00,
2013-04-04 13:05:00,47.9,28.7,30.17,ENE,77,0.0,0.0,47,0.00,,,0.00,LWC V2.00 B2112,2013-04-04 17:05:00,
2013-04-04 13:10:00,47.7,29.5,30.17,East,96,0.0,0.0,49,0.00,,,0.00,LWC V2.00 B2112,2013-04-04 17:10:00,
2013-04-04 13:15:00,48.0,29.3,30.16,East,90,4.0,4.0,48,0.00,,,0.00,LWC V2.00 B2112,2013-04-04 17:15:00,
2013-04-04 13:20:00,48.0,29.3,30.16,East,84,0.0,2.0,48,0.00,,,0.00,LWC V2.00 B2112,2013-04-04 17:20:00,
2013-04-04 13:25:00,48.3,30.0,30.16,East,84,0.0,0.0,49,0.00,,,0.00,LWC V2.00 B2112,2013-04-04 17:25:00,
2013-04-04 13:30:00,47.9,28.1,30.14,NE,41,0.0,0.0,46,0.00,,,0.00,LWC V2.00 B2112,2013-04-04 17:30:00,
2013-04-04 13:40:00,47.3,28.6,30.14,East,98,0.0,0.0,48,0.00,,,0.00,LWC V2.00 B2112,2013-04-04 17:40:00,
2013-04-04 13:45:00,47.0,29.8,30.14,ENE,74,0.0,0.0,51,0.00,,,0.00,LWC V2.00 B2112,2013-04-04 17:45:00,
2013-04-04 13:55:00,46.4,31.6,30.14,ESE,107,0.0,0.0,56,0.00,,,0.00,LWC V2.00 B2112,2013-04-04 17:55:00,
2013-04-04 14:05:00,46.1,31.7,30.13,ESE,107,0.0,0.0,57,0.00,,,0.00,LWC V2.00 B2112,2013-04-04 18:05:00,
2013-04-04 14:10:00,46.0,30.7,30.13,ESE,107,0.0,0.0,55,0.00,,,0.00,LWC V2.00 B2112,2013-04-04 18:10:00,
2013-04-04 14:15:00,46.0,31.2,30.14,ESE,106,0.0,0.0,56,0.00,,,0.00,LWC V2.00 B2112,2013-04-04 18:15:00,
2013-04-04 14:25:00,45.5,34.4,30.14,ESE,106,0.0,0.0,65,0.00,,,0.00,LWC V2.00 B2112,2013-04-04 18:25:00,
2013-04-04 14:30:00,45.1,34.0,30.14,ESE,106,0.0,0.0,65,0.00,,,0.01,LWC V2.00 B2112,2013-04-04 18:30:00,
2013-04-04 14:35:00,44.6,33.2,30.14,ESE,106,0.0,0.0,64,0.00,,,0.01,LWC V2.00 B2112,2013-04-04 18:35:00,
2013-04-04 14:45:00,43.9,34.8,30.14,ESE,106,0.0,0.0,70,0.00,,,0.01,LWC V2.00 B2112,2013-04-04 18:45:00,
2013-04-04 14:50:00,43.6,34.8,30.14,ESE,106,0.0,0.0,71,0.00,,,0.02,LWC V2.00 B2112,2013-04-04 18:50:00,
2013-04-04 14:55:00,43.2,35.1,30.14,ESE,106,0.0,0.0,73,0.08,,,0.03,LWC V2.00 B2112,2013-04-04 18:55:00,
2013-04-04 15:00:00,42.9,35.5,30.13,ESE,106,0.0,0.0,75,0.08,,,0.03,LWC V2.00 B2112,2013-04-04 19:00:00,
2013-04-04 15:05:00,42.8,36.4,30.13,ESE,106,0.0,0.0,78,0.09,,,0.04,LWC V2.00 B2112,2013-04-04 19:05:00,
2013-04-04 15:10:00,42.9,37.2,30.13,ESE,106,0.0,0.0,80,0.06,,,0.04,LWC V2.00 B2112,2013-04-04 19:10:00,
2013-04-04 15:15:00,42.9,38.1,30.13,ESE,106,0.0,0.0,83,0.04,,,0.04,LWC V2.00 B2112,2013-04-04 19:15:00,
2013-04-04 15:20:00,42.9,38.4,30.13,ESE,106,0.0,0.0,84,0.00,,,0.04,LWC V2.00 B2112,2013-04-04 19:20:00,
2013-04-04 15:30:00,42.8,38.9,30.10,ESE,106,0.0,0.0,86,0.07,,,0.05,LWC V2.00 B2112,2013-04-04 19:30:00,
2013-04-04 15:35:00,42.5,38.6,30.10,ESE,106,0.0,0.0,86,0.07,,,0.06,LWC V2.00 B2112,2013-04-04 19:35:00,
2013-04-04 15:45:00,41.9,38.0,30.10,ESE,106,0.0,0.0,86,0.07,,,0.07,LWC V2.00 B2112,2013-04-04 19:45:00,
2013-04-04 15:55:00,41.3,38.0,30.10,ENE,61,0.0,0.0,88,0.16,,,0.10,LWC V2.00 B2112,2013-04-04 19:55:00,
2013-04-04 16:00:00,41.2,38.2,30.09,ENE,61,0.0,0.0,89,0.22,,,0.12,LWC V2.00 B2112,2013-04-04 20:00:00,
2013-04-04 16:05:00,40.9,37.9,30.09,ENE,61,0.0,0.0,89,0.16,,,0.13,LWC V2.00 B2112,2013-04-04 20:05:00,
2013-04-04 16:10:00,40.8,37.8,30.09,ENE,61,0.0,0.0,89,0.17,,,0.14,LWC V2.00 B2112,2013-04-04 20:10:00,
2013-04-04 16:15:00,40.6,37.6,30.10,NE,52,0.0,0.0,89,0.08,,,0.14,LWC V2.00 B2112,2013-04-04 20:15:00,
2013-04-04 16:20:00,40.6,37.9,30.10,ENE,65,0.0,0.0,90,0.07,,,0.15,LWC V2.00 B2112,2013-04-04 20:20:00,
2013-04-04 16:25:00,40.5,37.8,30.10,ENE,65,0.0,0.0,90,0.07,,,0.15,LWC V2.00 B2112,2013-04-04 20:25:00,
2013-04-04 16:30:00,40.5,37.8,30.09,ENE,65,0.0,0.0,90,0.06,,,0.16,LWC V2.00 B2112,2013-04-04 20:30:00,
2013-04-04 16:40:00,40.3,37.9,30.09,NE,41,0.0,0.0,91,0.06,,,0.17,LWC V2.00 B2112,2013-04-04 20:40:00,
2013-04-04 16:45:00,40.3,37.9,30.08,East,97,0.0,0.0,91,0.06,,,0.17,LWC V2.00 B2112,2013-04-04 20:45:00,
2013-04-04 16:50:00,40.3,37.9,30.08,ENE,74,0.0,0.0,91,0.04,,,0.17,LWC V2.00 B2112,2013-04-04 20:50:00,
2013-04-04 17:00:00,40.3,37.9,30.08,ENE,63,0.0,0.0,91,0.04,,,0.18,LWC V2.00 B2112,2013-04-04 21:00:00,
2013-04-04 17:05:00,40.3,37.9,30.08,East,82,0.0,0.0,91,0.04,,,0.18,LWC V2.00 B2112,2013-04-04 21:05:00,
2013-04-04 17:10:00,40.2,37.8,30.08,East,89,0.0,0.0,91,0.00,,,0.18,LWC V2.00 B2112,2013-04-04 21:10:00,
2013-04-04 17:15:00,40.2,37.8,30.07,East,89,0.0,0.0,91,0.00,,,0.18,LWC V2.00 B2112,2013-04-04 21:15:00,
2013-04-04 17:20:00,40.2,38.1,30.07,East,89,0.0,0.0,92,0.00,,,0.18,LWC V2.00 B2112,2013-04-04 21:20:00,
2013-04-04 17:25:00,40.2,38.1,30.07,NE,44,0.0,0.0,92,0.00,,,0.19,LWC V2.00 B2112,2013-04-04 21:25:00,
2013-04-04 17:30:00,40.2,38.1,30.07,NE,44,0.0,0.0,92,0.00,,,0.19,LWC V2.00 B2112,2013-04-04 21:30:00,
2013-04-04 17:35:00,40.2,38.1,30.07,NE,46,0.0,0.0,92,0.00,,,0.19,LWC V2.00 B2112,2013-04-04 21:35:00,
2013-04-04 17:40:00,40.1,38.0,30.07,NNE,33,0.0,4.0,92,0.00,,,0.19,LWC V2.00 B2112,2013-04-04 21:40:00,
2013-04-04 17:45:00,40.1,38.0,30.05,East,101,0.0,0.0,92,0.00,,,0.19,LWC V2.00 B2112,2013-04-04 21:45:00,
2013-04-04 17:50:00,40.1,38.2,30.05,East,79,0.0,0.0,93,0.00,,,0.20,LWC V2.00 B2112,2013-04-04 21:50:00,
2013-04-04 17:55:00,39.9,38.0,30.05,ENE,58,0.0,0.0,93,0.00,,,0.20,LWC V2.00 B2112,2013-04-04 21:55:00,
2013-04-04 18:00:00,39.9,38.0,30.04,East,94,0.0,0.0,93,0.00,,,0.20,LWC V2.00 B2112,2013-04-04 22:00:00,
2013-04-04 18:05:00,39.8,37.4,30.04,East,89,0.0,0.0,91,0.04,,,0.21,LWC V2.00 B2112,2013-04-04 22:05:00,
2013-04-04 18:10:00,39.6,37.7,30.04,ENE,64,0.0,0.0,93,0.17,,,0.22,LWC V2.00 B2112,2013-04-04 22:10:00,
2013-04-04 18:15:00,39.6,38.0,30.02,East,91,0.0,0.0,94,0.13,,,0.23,LWC V2.00 B2112,2013-04-04 22:15:00,
2013-04-04 18:20:00,39.5,37.9,30.02,ENE,59,0.0,5.0,94,0.12,,,0.24,LWC V2.00 B2112,2013-04-04 22:20:00,
2013-04-04 18:25:00,39.5,37.9,30.02,NE,51,0.0,5.0,94,0.12,,,0.25,LWC V2.00 B2112,2013-04-04 22:25:00,
2013-04-04 18:30:00,39.3,37.7,30.02,NE,48,0.0,0.0,94,0.12,,,0.26,LWC V2.00 B2112,2013-04-04 22:30:00,
2013-04-04 18:35:00,39.3,37.7,30.02,East,87,0.0,0.0,94,0.12,,,0.27,LWC V2.00 B2112,2013-04-04 22:35:00,
2013-04-04 18:40:00,39.2,37.6,30.02,East,89,0.0,5.0,94,0.14,,,0.28,LWC V2.00 B2112,2013-04-04 22:40:00,
2013-04-04 18:45:00,39.2,37.6,30.02,ESE,103,0.0,1.0,94,0.07,,,0.29,LWC V2.00 B2112,2013-04-04 22:45:00,
2013-04-04 18:50:00,39.2,37.9,30.02,ENE,77,0.0,0.0,95,0.07,,,0.29,LWC V2.00 B2112,2013-04-04 22:50:00,
2013-04-04 18:55:00,39.1,37.8,30.02,NNE,23,0.0,4.0,95,0.09,,,0.30,LWC V2.00 B2112,2013-04-04 22:55:00,
2013-04-04 19:00:00,39.1,37.8,30.00,ENE,78,0.0,0.0,95,0.06,,,0.30,LWC V2.00 B2112,2013-04-04 23:00:00,
2013-04-04 19:05:00,39.1,37.8,30.00,East,79,0.0,0.0,95,0.04,,,0.30,LWC V2.00 B2112,2013-04-04 23:05:00,
2013-04-04 19:10:00,39.1,37.8,30.00,East,96,0.0,3.0,95,0.00,,,0.30,LWC V2.00 B2112,2013-04-04 23:10:00,
2013-04-04 19:15:00,39.1,38.1,30.00,ENE,63,0.0,3.0,96,0.00,,,0.30,LWC V2.00 B2112,2013-04-04 23:15:00,
2013-04-04 19:20:00,39.1,38.1,30.00,ESE,110,0.0,0.0,96,0.00,,,0.30,LWC V2.00 B2112,2013-04-04 23:20:00,
2013-04-04 19:25:00,39.1,38.1,30.00,ENE,61,3.0,5.0,96,0.00,,,0.30,LWC V2.00 B2112,2013-04-04 23:25:00,
2013-04-04 19:30:00,38.9,37.9,29.98,ESE,113,0.0,0.0,96,0.00,,,0.30,LWC V2.00 B2112,2013-04-04 23:30:00,
2013-04-04 19:35:00,38.9,37.9,29.98,NE,44,0.0,4.0,96,0.00,,,0.30,LWC V2.00 B2112,2013-04-04 23:35:00,
2013-04-04 19:45:00,38.8,37.8,29.96,ESE,114,0.0,7.0,96,0.00,,,0.30,LWC V2.00 B2112,2013-04-04 23:45:00,
2013-04-04 19:50:00,38.8,37.8,29.96,East,93,0.0,0.0,96,0.00,,,0.31,LWC V2.00 B2112,2013-04-04 23:50:00,
2013-04-04 19:55:00,38.8,37.8,29.96,East,99,0.0,6.0,96,0.00,,,0.31,LWC V2.00 B2112,2013-04-04 23:55:00,
2013-04-04 20:05:00,38.8,37.8,29.97,East,93,0.0,0.0,96,0.00,,,0.31,LWC V2.00 B2112,2013-04-05 00:05:00,
2013-04-04 20:10:00,38.8,37.8,29.97,NE,42,0.0,0.0,96,0.00,,,0.31,LWC V2.00 B2112,2013-04-05 00:10:00,
2013-04-04 20:15:00,38.8,37.8,29.97,East,86,0.0,0.0,96,0.00,,,0.31,LWC V2.00 B2112,2013-04-05 00:15:00,
2013-04-04 20:20:00,38.8,37.8,29.97,NE,53,0.0,0.0,96,0.00,,,0.31,LWC V2.00 B2112,2013-04-05 00:20:00,
2013-04-04 20:25:00,38.8,37.8,29.97,NE,49,0.0,0.0,96,0.00,,,0.31,LWC V2.00 B2112,2013-04-05 00:25:00,
2013-04-04 20:30:00,38.8,37.8,29.97,ESE,112,0.0,4.0,96,0.00,,,0.31,LWC V2.00 B2112,2013-04-05 00:30:00,
2013-04-04 20:35:00,38.8,37.8,29.97,NE,44,1.0,2.0,96,0.00,,,0.31,LWC V2.00 B2112,2013-04-05 00:35:00,
2013-04-04 20:40:00,38.8,37.8,29.97,East,88,4.0,7.0,96,0.00,,,0.32,LWC V2.00 B2112,2013-04-05 00:40:00,
2013-04-04 20:50:00,38.6,37.6,29.93,NNE,32,0.0,0.0,96,0.07,,,0.33,LWC V2.00 B2112,2013-04-05 00:50:00,
2013-04-04 20:55:00,38.6,37.6,29.93,East,84,0.0,3.0,96,0.10,,,0.34,LWC V2.00 B2112,2013-04-05 00:55:00,
2013-04-04 21:00:00,38.6,37.6,29.94,NE,46,0.0,0.0,96,0.09,,,0.35,LWC V2.00 B2112,2013-04-05 01:00:00,
2013-04-04 21:05:00,38.6,37.6,29.94,East,84,0.0,4.0,96,0.12,,,0.36,LWC V2.00 B2112,2013-04-05 01:05:00,
2013-04-04 21:10:00,38.6,37.6,29.94,ENE,71,0.0,0.0,96,0.08,,,0.36,LWC V2.00 B2112,2013-04-05 01:10:00,
2013-04-04 21:15:00,38.6,37.6,29.92,East,88,0.0,2.0,96,0.05,,,0.37,LWC V2.00 B2112,2013-04-05 01:15:00,
2013-04-04 21:20:00,38.6,37.6,29.92,East,80,4.0,10.0,96,0.18,,,0.38,LWC V2.00 B2112,2013-04-05 01:20:00,
2013-04-04 21:25:00,38.6,37.6,29.92,NNE,20,1.0,4.0,96,0.16,,,0.39,LWC V2.00 B2112,2013-04-05 01:25:00,
2013-04-04 21:30:00,38.6,37.6,29.94,ENE,76,0.0,0.0,96,0.14,,,0.40,LWC V2.00 B2112,2013-04-05 01:30:00,
2013-04-04 21:35:00,38.6,37.6,29.94,ENE,76,0.0,0.0,96,0.14,,,0.42,LWC V2.00 B2112,2013-04-05 01:35:00,
2013-04-04 21:40:00,38.6,37.6,29.94,East,94,0.0,0.0,96,0.14,,,0.43,LWC V2.00 B2112,2013-04-05 01:40:00,
2013-04-04 21:45:00,38.6,37.8,29.93,East,81,0.0,0.0,97,0.24,,,0.45,LWC V2.00 B2112,2013-04-05 01:45:00,
2013-04-04 21:50:00,38.5,37.7,29.93,NE,52,0.0,0.0,97,0.23,,,0.47,LWC V2.00 B2112,2013-04-05 01:50:00,
2013-04-04 21:55:00,38.5,37.7,29.93,NNE,14,0.0,0.0,97,0.13,,,0.48,LWC V2.00 B2112,2013-04-05 01:55:00,
2013-04-04 22:00:00,38.5,37.7,29.91,NNW,341,0.0,0.0,97,0.14,,,0.50,LWC V2.00 B2112,2013-04-05 02:00:00,
2013-04-04 22:05:00,38.6,37.8,29.91,North,11,0.0,0.0,97,0.12,,,0.50,LWC V2.00 B2112,2013-04-05 02:05:00,
2013-04-04 22:10:00,38.6,37.8,29.91,ENE,69,0.0,0.0,97,0.07,,,0.51,LWC V2.00 B2112,2013-04-05 02:10:00,
2013-04-04 22:15:00,38.6,37.8,29.91,NNW,341,0.0,0.0,97,0.12,,,0.52,LWC V2.00 B2112,2013-04-05 02:15:00,
2013-04-04 22:20:00,38.6,37.8,29.91,NNE,14,0.0,0.0,97,0.25,,,0.54,LWC V2.00 B2112,2013-04-05 02:20:00,
2013-04-04 22:25:00,38.6,37.8,29.91,ESE,109,0.0,0.0,97,0.08,,,0.54,LWC V2.00 B2112,2013-04-05 02:25:00,
2013-04-04 22:30:00,38.6,37.8,29.89,East,89,0.0,0.0,97,0.19,,,0.56,LWC V2.00 B2112,2013-04-05 02:30:00,
2013-04-04 22:35:00,38.6,37.8,29.89,North,359,0.0,0.0,97,0.16,,,0.57,LWC V2.00 B2112,2013-04-05 02:35:00,
2013-04-04 22:40:00,38.6,37.8,29.89,NW,311,0.0,0.0,97,0.08,,,0.58,LWC V2.00 B2112,2013-04-05 02:40:00,
2013-04-04 22:50:00,38.6,37.8,29.88,ESE,116,0.0,4.0,97,0.09,,,0.59,LWC V2.00 B2112,2013-04-05 02:50:00,
2013-04-04 23:05:00,38.6,37.8,29.86,NE,39,0.0,0.0,97,0.06,,,0.60,LWC V2.00 B2112,2013-04-05 03:05:00,
2013-04-04 23:15:00,38.8,38.0,29.86,NE,55,0.0,0.0,97,0.08,,,0.62,LWC V2.00 B2112,2013-04-05 03:15:00,
2013-04-04 23:20:00,38.8,38.0,29.86,NE,53,0.0,0.0,97,0.08,,,0.62,LWC V2.00 B2112,2013-04-05 03:20:00,
2013-04-04 23:25:00,38.8,38.0,29.86,ENE,68,0.0,0.0,97,0.05,,,0.62,LWC V2.00 B2112,2013-04-05 03:25:00,
2013-04-04 23:30:00,38.8,38.0,29.85,ENE,69,0.0,0.0,97,0.05,,,0.63,LWC V2.00 B2112,2013-04-05 03:30:00,
2013-04-04 23:35:00,38.8,38.0,29.85,ESE,119,0.0,0.0,97,0.07,,,0.64,LWC V2.00 B2112,2013-04-05 03:35:00,
2013-04-04 23:40:00,38.6,37.8,29.85,East,98,0.0,3.0,97,0.10,,,0.65,LWC V2.00 B2112,2013-04-05 03:40:00,
2013-04-04 23:45:00,38.6,37.8,29.84,NE,52,0.0,5.0,97,0.10,,,0.65,LWC V2.00 B2112,2013-04-05 03:45:00,
2013-04-04 23:50:00,38.6,37.8,29.84,ENE,73,0.0,0.0,97,0.06,,,0.65,LWC V2.00 B2112,2013-04-05 03:50:00,
2013-04-04 23:55:00,38.6,37.8,29.84,East,89,0.0,0.0,97,0.04,,,0.65,LWC V2.00 B2112,2013-04-05 03:55:00,